Location: ASU Dark Sky Observatory
(36.2504°N, 81.4125°W)
Time: 19:47:30
(UTC-05:00)

Daily predictions for brighter satellites

Satellite Brightness Start Highest point End
(mag) Time Altitude Azimuth Time Altitude Azimuth Time Altitude Azimuth
Cosmos 44 4.0 18:29:14 10° NNW 18:33:54 36° NE 18:38:44 10° ESE
FENGYUN 3A 3.7 18:32:01 10° SSE 18:37:22 71° ENE 18:42:46 10° N
CZ-2C R/B 4.4 18:36:18 10° N 18:40:40 58° WNW 18:44:59 10° SSW
Cosmos 2227 Rocket 3.0 18:35:09 10° SW 18:40:41 57° WNW 18:46:16 10° NNE
CENTAUR R/B 2.5 18:37:01 10° SSW 18:42:46 66° ESE 18:49:19 10° NE
Cosmos 2233 Rocket 4.1 18:37:12 10° N 18:43:31 86° W 18:49:43 10° S
Cosmos 2237 Rocket 2.4 18:39:01 10° NNW 18:44:39 80° WSW 18:50:16 10° SSE
Cosmos 1378 Rocket 4.4 18:41:46 10° NNE 18:45:40 30° ENE 18:49:33 10° SE
SL-16 R/B 2.5 18:43:56 10° N 18:49:21 44° ENE 18:54:43 10° SE
Cosmos 1633 2.7 18:47:42 10° S 18:51:08 49° E 18:54:36 10° NNE
MOS 1 4.3 18:47:33 10° SSE 18:53:12 85° ENE 18:58:54 10° NNW
SJ-6B 4.2 18:50:42 10° ESE 18:53:15 18° ENE 18:55:51 10° NNE
Cosmos 2297 Rocket 3.2 18:49:00 10° SW 18:54:28 50° WNW 18:59:59 10° N
Lacrosse 5 2.9 18:50:27 10° NW 18:55:19 49° SW 19:00:09 10° SSE
H-2A R/B 3.0 18:52:02 10° SSE 18:55:47 46° ENE 18:59:33 10° N
Sich 1 Rocket 4.0 18:53:21 10° SSE 18:57:33 40° E 19:01:45 10° NNE
ERS-2 2.7 18:58:22 10° SE 19:01:45 35° ENE 19:05:09 10° N
COSMO-SKYMED 1 4.0 18:58:38 10° N 19:02:42 41° WNW 19:06:46 10° SW
Cosmos 1464 Rocket 4.0 18:56:55 10° N 19:02:56 56° E 19:08:56 10° SSE
Meteor 1-14 Rocket 4.3 19:00:24 10° S 19:06:10 89° E 19:12:06 10° N
Meteor 1-20 Rocket 4.2 19:01:11 10° S 19:06:50 75° E 19:12:38 10° NNE
MOS 1-B Rocket 4.4 19:01:20 10° S 19:07:51 69° WSW 19:13:38 10° NNW
Cosmos 158 Rocket 4.0 19:04:01 10° SSW 19:08:54 76° WNW 19:13:47 10° NNE
CZ-4 R/B 4.4 19:06:40 10° SW 19:09:42 20° W 19:12:43 10° NW
Okean 1 3.8 19:06:15 10° N 19:09:57 36° E 19:13:37 10° SSE
Iridium 4 Rocket 3.3 19:05:58 10° N 19:10:37 52° E 19:14:54 10° SSE
Okean 2 Rocket 4.0 19:08:39 10° SE 19:12:14 25° E 19:15:50 10° NE
Cosmos 1452 Rocket 3.5 19:07:50 10° NNW 19:13:08 87° ENE 19:18:22 10° SSE
BREEZE-M DEB (TANK) 3.6 19:12:32 10° NNW 19:14:10 16° NNE 19:14:37 15° NE
Cosmos 1072 Rocket 4.4 19:08:32 10° N 19:14:47 78° E 19:21:05 10° S
Cosmos 1048 Rocket 4.0 19:09:50 10° SSW 19:15:09 79° ESE 19:20:27 10° NNE
Cosmos 1812 3.2 19:11:24 10° NNW 19:15:15 65° W 19:19:04 10° S
CZ-2D R/B 4.2 19:12:21 11° SE 19:15:26 27° ENE 19:18:46 10° NNE
SPOT 3 Rocket 3.8 19:11:55 10° S 19:17:06 74° WSW 19:22:19 10° NNW
Cosmos 2263 Rocket 3.4 19:19:49 10° SE 19:23:04 19° ESE 19:23:04 19° ESE
Okean 3 3.9 19:20:44 10° NNW 19:24:52 63° W 19:28:59 10° S
Cosmos 1602 3.9 19:22:12 10° SSE 19:25:58 48° E 19:29:44 10° NNE
OAO 2 Rocket 3.3 19:22:26 10° WSW 19:27:22 73° S 19:29:58 28° E
IUS-18 SRM-1 4.4 19:29:10 10° SSW 19:30:28 13° S 19:32:12 10° SSE
Meteor 1-18 Rocket 4.2 19:25:30 10° N 19:31:06 85° W 19:36:38 10° S
Cosmos 1908 Rocket 4.2 19:27:14 10° SSW 19:31:38 58° W 19:36:04 10° N
Cosmos 1420 Rocket 4.2 19:27:26 10° NNW 19:32:44 77° WSW 19:38:01 10° S
Cosmos 921 Rocket 3.0 19:28:57 10° N 19:33:26 61° ENE 19:37:50 10° SSE
Cosmos 2034 Rocket 3.9 19:32:42 10° N 19:39:06 81° E 19:45:28 10° S
FREGAT/IRIS 3.3 19:36:43 10° S 19:39:35 52° W 19:42:30 10° NNW
Cosmos 1891 Rocket 4.5 19:33:53 10° N 19:40:05 83° W 19:46:09 10° S
Tiangong 2 2.2 19:38:24 10° WNW 19:41:23 39° SSW 19:42:18 31° S
Cosmos 1437 Rocket 3.0 19:39:42 10° SSW 19:43:43 72° W 19:47:49 10° N
Meteor 2-4 Rocket 4.2 19:38:46 10° N 19:44:06 37° ENE 19:45:18 34° ESE
Cosmos 2227 4.1 19:38:57 10° SSW 19:44:40 80° ESE 19:50:24 10° NNE
Meteor 1-19 Rocket 4.2 19:39:19 10° N 19:44:45 56° E 19:50:11 10° SSE
Meteor 1-11 Rocket 3.8 19:41:40 10° SSE 19:47:01 52° E 19:52:30 10° NNE
Cosmos 44 Rocket 3.8 19:43:42 10° NW 19:48:43 64° WSW 19:53:48 10° SSE
ARGOS Delta rocket 3.6 19:44:26 10° NNE 19:49:15 82° E 19:53:47 10° S
Cosmos 1816 Rocket 4.4 19:44:29 10° S 19:50:50 78° E 19:57:12 10° N
Cosmos 1634 Rocket 4.4 19:45:44 10° N 19:51:26 38° ENE 19:52:05 37° E
SeaSat 1 2.5 19:50:15 40° ESE 19:51:41 55° ENE 19:56:30 10° NNW
Gbstr 26 Del rocket 2.7 19:50:50 10° SW 19:54:32 70° NW 19:55:12 55° NNE
Meteor 1-4 Rocket 4.1 19:54:18 10° S 19:55:43 23° S 19:55:43 23° S
USA 215 3.4 19:52:59 15° NE 19:58:31 75° NW 20:05:01 10° SW
Envisat 2.9 19:55:35 10° SSE 20:00:39 85° ENE 20:05:45 10° N
Cosmos 1975 Rocket 3.2 19:56:51 10° N 20:01:17 75° W 20:05:44 10° S
COSMOS 2455 2.7 19:57:19 10° SSW 20:03:14 64° ESE 20:05:36 37° NE
Resurs 01 Rocket 2.5 20:06:03 35° NNE 20:06:03 35° NNE 20:08:48 10° N
Thor Agena Rocket 4.1 20:05:35 10° N 20:10:33 57° WNW 20:15:28 10° SSW
CZ-4C R/B 3.7 20:04:17 10° NNW 20:10:36 31° NE 20:10:42 31° NE
BREEZE-M DEB (TANK) 3.5 20:09:51 10° WSW 20:12:52 69° NW 20:15:23 33° NE
Cosmos 1943 4.0 20:09:18 10° N 20:13:11 34° NNE 20:13:11 34° NNE
Cosmos 494 Rocket 4.0 20:10:27 10° SSW 20:15:40 79° WNW 20:19:03 22° NNE
Cosmos 1110 Rocket 3.9 20:14:01 10° NNW 20:19:14 79° ENE 20:19:14 79° ENE
ATLAS CENTAUR R/B 4.1 20:25:57 10° N 20:26:07 11° N 20:26:07 11° N
USA 267 4.1 20:30:04 33° NNE 20:30:04 33° NNE 20:35:34 10° NNW
SL-16 R/B 4.5 20:28:50 10° NW 20:33:05 22° W 20:37:20 10° SSW
Cosmos 1603 4.3 20:46:39 10° NNW 20:52:03 51° WSW 20:52:03 51° WSW
Cosmos 2263 Rocket 3.6 21:01:51 10° SW 21:04:56 31° WSW 21:04:56 31° WSW
CZ-4C R/B 4.3 21:52:17 10° NW 21:55:55 32° NW 21:55:55 32° NW
